Year,Month,Day,Hour,Minute,Value (Times are PST for temperature in C)
2012,07,25,00,00,16.90
2012,07,25,00,01,16.90
2012,07,25,00,02,16.90
2012,07,25,00,03,16.90
2012,07,25,00,04,16.90
2012,07,25,00,05,16.90
2012,07,25,00,06,16.90
2012,07,25,00,07,16.90
2012,07,25,00,08,16.90
2012,07,25,00,09,16.90
2012,07,25,00,10,17.00
2012,07,25,00,11,17.00
2012,07,25,00,12,17.00
2012,07,25,00,13,17.00
2012,07,25,00,14,17.00
2012,07,25,00,15,17.00
2012,07,25,00,16,17.00
2012,07,25,00,17,17.10
2012,07,25,00,18,17.10
2012,07,25,00,19,17.10
2012,07,25,00,20,17.10
2012,07,25,00,21,17.10
2012,07,25,00,22,17.10
2012,07,25,00,23,17.10
2012,07,25,00,24,17.10
2012,07,25,00,25,17.10
2012,07,25,00,26,17.10
2012,07,25,00,27,17.10
2012,07,25,00,28,17.10
2012,07,25,00,29,17.10
2012,07,25,00,30,17.10
2012,07,25,00,31,17.00
2012,07,25,00,32,17.00
2012,07,25,00,33,17.00
2012,07,25,00,34,17.00
2012,07,25,00,35,17.00
2012,07,25,00,36,16.90
2012,07,25,00,37,16.90
2012,07,25,00,38,16.90
2012,07,25,00,39,16.90
2012,07,25,00,40,16.90
2012,07,25,00,41,16.90
2012,07,25,00,42,16.90
2012,07,25,00,43,16.80
2012,07,25,00,44,16.80
2012,07,25,00,45,16.80
2012,07,25,00,46,16.80
2012,07,25,00,47,16.80
2012,07,25,00,48,16.80
2012,07,25,00,49,16.80
2012,07,25,00,50,16.80
2012,07,25,00,51,16.80
2012,07,25,00,52,16.70
2012,07,25,00,53,16.70
2012,07,25,00,54,16.70
2012,07,25,00,55,16.70
2012,07,25,00,56,16.70
2012,07,25,00,57,16.70
2012,07,25,00,58,16.70
2012,07,25,00,59,16.70
2012,07,25,01,00,16.70
2012,07,25,01,01,16.60
2012,07,25,01,02,16.60
2012,07,25,01,03,16.60
2012,07,25,01,04,16.60
2012,07,25,01,05,16.60
2012,07,25,01,06,16.60
2012,07,25,01,07,16.60
2012,07,25,01,08,16.60
2012,07,25,01,09,16.60
2012,07,25,01,10,16.50
2012,07,25,01,11,16.50
2012,07,25,01,12,16.50
2012,07,25,01,13,16.40
2012,07,25,01,14,16.40
2012,07,25,01,15,16.40
2012,07,25,01,16,16.40
2012,07,25,01,17,16.40
2012,07,25,01,18,16.40
2012,07,25,01,19,16.30
2012,07,25,01,20,16.30
2012,07,25,01,21,16.30
2012,07,25,01,22,16.30
2012,07,25,01,23,16.30
2012,07,25,01,24,16.20
2012,07,25,01,25,16.20
2012,07,25,01,26,16.20
2012,07,25,01,27,16.20
2012,07,25,01,28,16.20
2012,07,25,01,29,16.20
2012,07,25,01,30,16.20
2012,07,25,01,31,16.20
2012,07,25,01,32,16.20
2012,07,25,01,33,16.20
2012,07,25,01,34,16.20
2012,07,25,01,35,16.20
2012,07,25,01,36,16.20
2012,07,25,01,37,16.20
2012,07,25,01,38,16.20
2012,07,25,01,39,16.20
2012,07,25,01,40,16.20
2012,07,25,01,41,16.20
2012,07,25,01,42,16.10
2012,07,25,01,43,16.10
2012,07,25,01,44,16.10
2012,07,25,01,45,16.10
2012,07,25,01,46,16.10
2012,07,25,01,47,16.00
2012,07,25,01,48,16.00
2012,07,25,01,49,16.00
2012,07,25,01,50,16.00
2012,07,25,01,51,15.90
2012,07,25,01,52,15.90
2012,07,25,01,53,15.90
2012,07,25,01,54,15.90
2012,07,25,01,55,15.90
2012,07,25,01,56,15.90
2012,07,25,01,57,15.80
2012,07,25,01,58,15.80
2012,07,25,01,59,15.80
2012,07,25,02,00,15.80
2012,07,25,02,01,15.80
2012,07,25,02,02,15.70
2012,07,25,02,03,15.70
2012,07,25,02,04,15.70
2012,07,25,02,05,15.70
2012,07,25,02,06,15.60
2012,07,25,02,07,15.60
2012,07,25,02,08,15.60
2012,07,25,02,09,15.50
2012,07,25,02,10,15.50
2012,07,25,02,11,15.40
2012,07,25,02,12,15.40
2012,07,25,02,13,15.40
2012,07,25,02,14,15.30
2012,07,25,02,15,15.30
2012,07,25,02,16,15.30
2012,07,25,02,17,15.20
2012,07,25,02,18,15.20
2012,07,25,02,19,15.20
2012,07,25,02,20,15.20
2012,07,25,02,21,15.20
2012,07,25,02,22,15.10
2012,07,25,02,23,15.10
2012,07,25,02,24,15.10
2012,07,25,02,25,15.10
2012,07,25,02,26,15.00
2012,07,25,02,27,15.00
2012,07,25,02,28,15.00
2012,07,25,02,29,15.00
2012,07,25,02,30,15.00
2012,07,25,02,31,14.90
2012,07,25,02,32,14.90
2012,07,25,02,33,14.90
2012,07,25,02,34,14.90
2012,07,25,02,35,14.90
2012,07,25,02,36,14.90
2012,07,25,02,37,14.90
2012,07,25,02,38,14.90
2012,07,25,02,39,14.90
2012,07,25,02,40,14.90
2012,07,25,02,41,14.90
2012,07,25,02,42,14.90
2012,07,25,02,43,14.90
2012,07,25,02,44,14.90
2012,07,25,02,45,14.90
2012,07,25,02,46,14.90
2012,07,25,02,47,14.90
2012,07,25,02,48,14.90
2012,07,25,02,49,14.90
2012,07,25,02,50,14.80
2012,07,25,02,51,14.90
2012,07,25,02,52,14.90
2012,07,25,02,53,14.90
2012,07,25,02,54,14.90
2012,07,25,02,55,14.90
2012,07,25,02,56,14.90
2012,07,25,02,57,14.90
2012,07,25,02,58,15.00
2012,07,25,02,59,15.00
2012,07,25,03,00,15.00
2012,07,25,03,01,15.00
2012,07,25,03,02,15.00
2012,07,25,03,03,15.00
2012,07,25,03,04,15.00
2012,07,25,03,05,15.00
2012,07,25,03,06,15.00
2012,07,25,03,07,15.00
2012,07,25,03,08,15.00
2012,07,25,03,09,15.00
2012,07,25,03,10,15.00
2012,07,25,03,11,15.10
2012,07,25,03,12,15.10
2012,07,25,03,13,15.10
2012,07,25,03,14,15.10
2012,07,25,03,15,15.10
2012,07,25,03,16,15.20
2012,07,25,03,17,15.20
2012,07,25,03,18,15.20
2012,07,25,03,19,15.20
2012,07,25,03,20,15.30
2012,07,25,03,21,15.30
2012,07,25,03,22,15.30
2012,07,25,03,23,15.30
2012,07,25,03,24,15.30
2012,07,25,03,25,15.40
2012,07,25,03,26,15.40
2012,07,25,03,27,15.40
2012,07,25,03,28,15.40
2012,07,25,03,29,15.40
2012,07,25,03,30,15.40
2012,07,25,03,31,15.40
2012,07,25,03,32,15.50
2012,07,25,03,33,15.50
2012,07,25,03,34,15.50
2012,07,25,03,35,15.50
2012,07,25,03,36,15.60
2012,07,25,03,37,15.60
2012,07,25,03,38,15.60
2012,07,25,03,39,15.60
2012,07,25,03,40,15.60
2012,07,25,03,41,15.60
2012,07,25,03,42,15.60
2012,07,25,03,43,15.60
2012,07,25,03,44,15.60
2012,07,25,03,45,15.60
2012,07,25,03,46,15.60
2012,07,25,03,47,15.50
2012,07,25,03,48,15.50
2012,07,25,03,49,15.50
2012,07,25,03,50,15.50
2012,07,25,03,51,15.40
2012,07,25,03,52,15.40
2012,07,25,03,53,15.40
2012,07,25,03,54,15.40
2012,07,25,03,55,15.40
2012,07,25,03,56,15.40
2012,07,25,03,57,15.40
2012,07,25,03,58,15.40
2012,07,25,03,59,15.40
2012,07,25,04,00,15.30
2012,07,25,04,01,15.30
2012,07,25,04,02,15.30
2012,07,25,04,03,15.30
2012,07,25,04,04,15.30
2012,07,25,04,05,15.30
2012,07,25,04,06,15.30
2012,07,25,04,07,15.30
2012,07,25,04,08,15.30
2012,07,25,04,09,15.30
2012,07,25,04,10,15.30
2012,07,25,04,11,15.30
2012,07,25,04,12,15.30
2012,07,25,04,13,15.30
2012,07,25,04,14,15.30
2012,07,25,04,15,15.20
2012,07,25,04,16,15.20
2012,07,25,04,17,15.20
2012,07,25,04,18,15.20
2012,07,25,04,19,15.20
2012,07,25,04,20,15.20
2012,07,25,04,21,15.30
2012,07,25,04,22,15.30
2012,07,25,04,23,15.30
2012,07,25,04,24,15.30
2012,07,25,04,25,15.30
2012,07,25,04,26,15.30
2012,07,25,04,27,15.30
2012,07,25,04,28,15.30
2012,07,25,04,29,15.30
2012,07,25,04,30,15.30
2012,07,25,04,31,15.20
2012,07,25,04,32,15.20
2012,07,25,04,33,15.20
2012,07,25,04,34,15.20
2012,07,25,04,35,15.10
2012,07,25,04,36,15.10
2012,07,25,04,37,15.10
2012,07,25,04,38,15.00
2012,07,25,04,39,14.90
2012,07,25,04,40,14.90
2012,07,25,04,41,14.90
2012,07,25,04,42,14.90
2012,07,25,04,43,14.80
2012,07,25,04,44,14.80
2012,07,25,04,45,14.80
2012,07,25,04,46,14.70
2012,07,25,04,47,14.70
2012,07,25,04,48,14.70
2012,07,25,04,49,14.70
2012,07,25,04,50,14.70
2012,07,25,04,51,14.70
2012,07,25,04,52,14.60
2012,07,25,04,53,14.60
2012,07,25,04,54,14.60
2012,07,25,04,55,14.60
2012,07,25,04,56,14.60
2012,07,25,04,57,14.60
2012,07,25,04,58,14.70
2012,07,25,04,59,14.70
2012,07,25,05,00,14.70
2012,07,25,05,01,14.70
2012,07,25,05,02,14.70
2012,07,25,05,03,14.80
2012,07,25,05,04,14.80
2012,07,25,05,05,14.80
2012,07,25,05,06,14.80
2012,07,25,05,07,14.90
2012,07,25,05,08,14.90
2012,07,25,05,09,15.00
2012,07,25,05,10,15.00
2012,07,25,05,11,15.10
2012,07,25,05,12,15.10
2012,07,25,05,13,15.10
2012,07,25,05,14,15.10
2012,07,25,05,15,15.10
2012,07,25,05,16,15.10
2012,07,25,05,17,15.10
2012,07,25,05,18,15.10
2012,07,25,05,19,15.10
2012,07,25,05,20,15.10
2012,07,25,05,21,15.00
2012,07,25,05,22,15.00
2012,07,25,05,23,15.00
2012,07,25,05,24,15.00
2012,07,25,05,25,15.00
2012,07,25,05,26,15.00
2012,07,25,05,27,14.90
2012,07,25,05,28,14.90
2012,07,25,05,29,14.90
2012,07,25,05,30,14.90
2012,07,25,05,31,14.90
2012,07,25,05,32,14.90
2012,07,25,05,33,14.90
2012,07,25,05,34,14.90
2012,07,25,05,35,14.90
2012,07,25,05,36,14.90
2012,07,25,05,37,14.90
2012,07,25,05,38,14.90
2012,07,25,05,39,15.00
2012,07,25,05,40,15.00
2012,07,25,05,41,15.00
2012,07,25,05,42,15.00
2012,07,25,05,43,15.00
2012,07,25,05,44,15.00
2012,07,25,05,45,15.00
2012,07,25,05,46,15.00
2012,07,25,05,47,15.00
2012,07,25,05,48,15.00
2012,07,25,05,49,15.00
2012,07,25,05,50,14.90
2012,07,25,05,51,14.90
2012,07,25,05,52,14.90
2012,07,25,05,53,14.90
2012,07,25,05,54,15.00
2012,07,25,05,55,15.00
2012,07,25,05,56,14.90
2012,07,25,05,57,14.90
2012,07,25,05,58,14.90
2012,07,25,05,59,14.90
2012,07,25,06,00,14.90
2012,07,25,06,01,14.90
2012,07,25,06,02,14.90
2012,07,25,06,03,14.90
2012,07,25,06,04,14.90
2012,07,25,06,05,14.90
2012,07,25,06,06,14.80
2012,07,25,06,07,14.80
2012,07,25,06,08,14.80
2012,07,25,06,09,14.80
2012,07,25,06,10,14.80
2012,07,25,06,11,14.80
2012,07,25,06,12,14.80
2012,07,25,06,13,14.80
2012,07,25,06,14,14.80
2012,07,25,06,15,14.80
2012,07,25,06,16,14.80
2012,07,25,06,17,14.80
2012,07,25,06,18,14.80
2012,07,25,06,19,14.80
2012,07,25,06,20,14.80
2012,07,25,06,21,14.80
2012,07,25,06,22,14.80
2012,07,25,06,23,14.80
2012,07,25,06,24,14.80
2012,07,25,06,25,14.80
2012,07,25,06,26,14.80
2012,07,25,06,27,14.80
2012,07,25,06,28,14.80
2012,07,25,06,29,14.80
2012,07,25,06,30,14.80
2012,07,25,06,31,14.80
2012,07,25,06,32,14.80
2012,07,25,06,33,14.80
2012,07,25,06,34,14.90
2012,07,25,06,35,14.90
2012,07,25,06,36,14.90
2012,07,25,06,37,14.90
2012,07,25,06,38,14.90
2012,07,25,06,39,15.00
2012,07,25,06,40,15.00
2012,07,25,06,41,15.10
2012,07,25,06,42,15.10
2012,07,25,06,43,15.10
2012,07,25,06,44,15.10
2012,07,25,06,45,15.20
2012,07,25,06,46,15.20
2012,07,25,06,47,15.20
2012,07,25,06,48,15.20
2012,07,25,06,49,15.30
2012,07,25,06,50,15.30
2012,07,25,06,51,15.30
2012,07,25,06,52,15.30
2012,07,25,06,53,15.30
2012,07,25,06,54,15.30
2012,07,25,06,55,15.30
2012,07,25,06,56,15.30
2012,07,25,06,57,15.30
2012,07,25,06,58,15.30
2012,07,25,06,59,15.30
2012,07,25,07,00,15.30
2012,07,25,07,01,15.30
2012,07,25,07,02,15.30
2012,07,25,07,03,15.30
2012,07,25,07,04,15.40
2012,07,25,07,05,15.40
2012,07,25,07,06,15.40
2012,07,25,07,07,15.40
2012,07,25,07,08,15.40
2012,07,25,07,09,15.40
2012,07,25,07,10,15.40
2012,07,25,07,11,15.40
2012,07,25,07,12,15.50
2012,07,25,07,13,15.50
2012,07,25,07,14,15.50
2012,07,25,07,15,15.50
2012,07,25,07,16,15.50
2012,07,25,07,17,15.60
2012,07,25,07,18,15.60
2012,07,25,07,19,15.60
2012,07,25,07,20,15.60
2012,07,25,07,21,15.60
2012,07,25,07,22,15.70
2012,07,25,07,23,15.70
2012,07,25,07,24,15.80
2012,07,25,07,25,15.80
2012,07,25,07,26,15.80
2012,07,25,07,27,15.90
2012,07,25,07,28,15.90
2012,07,25,07,29,15.90
2012,07,25,07,30,16.00
2012,07,25,07,31,16.00
2012,07,25,07,32,16.10
2012,07,25,07,33,16.10
2012,07,25,07,34,16.20
2012,07,25,07,35,16.20
2012,07,25,07,36,16.20
2012,07,25,07,37,16.30
2012,07,25,07,38,16.30
2012,07,25,07,39,16.30
2012,07,25,07,40,16.30
2012,07,25,07,41,16.40
2012,07,25,07,42,16.40
2012,07,25,07,43,16.40
2012,07,25,07,44,16.40
2012,07,25,07,45,16.50
2012,07,25,07,46,16.50
2012,07,25,07,47,16.50
2012,07,25,07,48,16.60
2012,07,25,07,49,16.60
2012,07,25,07,50,16.60
2012,07,25,07,51,16.70
2012,07,25,07,52,16.70
2012,07,25,07,53,16.70
2012,07,25,07,54,16.80
2012,07,25,07,55,16.80
2012,07,25,07,56,16.80
2012,07,25,07,57,16.80
2012,07,25,07,58,16.80
2012,07,25,07,59,16.90
2012,07,25,08,00,16.90
2012,07,25,08,01,16.90
2012,07,25,08,02,17.00
2012,07,25,08,03,17.00
2012,07,25,08,04,17.00
2012,07,25,08,05,17.00
2012,07,25,08,06,17.10
2012,07,25,08,07,17.10
2012,07,25,08,08,17.10
2012,07,25,08,09,17.10
2012,07,25,08,10,17.10
2012,07,25,08,11,17.10
2012,07,25,08,12,17.10
2012,07,25,08,13,17.10
2012,07,25,08,14,17.10
2012,07,25,08,15,17.20
2012,07,25,08,16,17.20
2012,07,25,08,17,17.20
2012,07,25,08,18,17.20
2012,07,25,08,19,17.20
2012,07,25,08,20,17.20
2012,07,25,08,21,17.30
2012,07,25,08,22,17.30
2012,07,25,08,23,17.30
2012,07,25,08,24,17.30
2012,07,25,08,25,17.30
2012,07,25,08,26,17.40
2012,07,25,08,27,17.40
2012,07,25,08,28,17.40
2012,07,25,08,29,17.50
2012,07,25,08,30,17.50
2012,07,25,08,31,17.50
2012,07,25,08,32,17.60
2012,07,25,08,33,17.60
2012,07,25,08,34,17.60
2012,07,25,08,35,17.60
2012,07,25,08,36,17.70
2012,07,25,08,37,17.70
2012,07,25,08,38,17.70
2012,07,25,08,39,17.80
2012,07,25,08,40,17.80
2012,07,25,08,41,17.80
2012,07,25,08,42,17.80
2012,07,25,08,43,17.80
2012,07,25,08,44,17.90
2012,07,25,08,45,17.90
2012,07,25,08,46,17.90
2012,07,25,08,47,17.90
2012,07,25,08,48,17.90
2012,07,25,08,49,18.00
2012,07,25,08,50,18.10
2012,07,25,08,51,18.10
2012,07,25,08,52,18.10
2012,07,25,08,53,18.00
2012,07,25,08,54,18.00
2012,07,25,08,55,18.00
2012,07,25,08,56,18.10
2012,07,25,08,57,18.10
2012,07,25,08,58,18.10
2012,07,25,08,59,18.10
2012,07,25,09,00,18.10
2012,07,25,09,01,18.20
2012,07,25,09,02,18.20
2012,07,25,09,03,18.20
2012,07,25,09,04,18.20
2012,07,25,09,05,18.20
2012,07,25,09,06,18.20
2012,07,25,09,07,18.20
2012,07,25,09,08,18.20
2012,07,25,09,09,18.30
2012,07,25,09,10,18.30
2012,07,25,09,11,18.30
2012,07,25,09,12,18.30
2012,07,25,09,13,18.20
2012,07,25,09,14,18.20
2012,07,25,09,15,18.30
2012,07,25,09,16,18.30
2012,07,25,09,17,18.30
2012,07,25,09,18,18.30
2012,07,25,09,19,18.30
2012,07,25,09,20,18.30
2012,07,25,09,21,18.30
2012,07,25,09,22,18.30
2012,07,25,09,23,18.40
2012,07,25,09,24,18.40
2012,07,25,09,25,18.50
2012,07,25,09,26,18.50
2012,07,25,09,27,18.40
2012,07,25,09,28,18.40
2012,07,25,09,29,18.40
2012,07,25,09,30,18.40
2012,07,25,09,31,18.40
2012,07,25,09,32,18.50
2012,07,25,09,33,18.50
2012,07,25,09,34,18.50
2012,07,25,09,35,18.50
2012,07,25,09,36,18.50
2012,07,25,09,37,18.50
2012,07,25,09,38,18.60
2012,07,25,09,39,18.60
2012,07,25,09,40,18.70
2012,07,25,09,41,18.70
2012,07,25,09,42,18.70
2012,07,25,09,43,18.70
2012,07,25,09,44,18.70
2012,07,25,09,45,18.70
2012,07,25,09,46,18.70
2012,07,25,09,47,18.70
2012,07,25,09,48,18.80
2012,07,25,09,49,18.80
2012,07,25,09,50,18.80
2012,07,25,09,51,18.80
2012,07,25,09,52,18.80
2012,07,25,09,53,18.90
2012,07,25,09,54,18.90
2012,07,25,09,55,18.90
2012,07,25,09,56,18.90
2012,07,25,09,57,18.90
2012,07,25,09,58,18.90
2012,07,25,09,59,18.90
2012,07,25,10,00,19.00
2012,07,25,10,01,19.00
2012,07,25,10,02,19.10
2012,07,25,10,03,19.10
2012,07,25,10,04,19.10
2012,07,25,10,05,19.10
2012,07,25,10,06,19.10
2012,07,25,10,07,19.10
2012,07,25,10,08,19.10
2012,07,25,10,09,19.10
2012,07,25,10,10,19.10
2012,07,25,10,11,19.10
2012,07,25,10,12,19.10
2012,07,25,10,13,19.10
2012,07,25,10,14,19.10
2012,07,25,10,15,19.10
2012,07,25,10,16,19.10
2012,07,25,10,17,19.10
2012,07,25,10,18,19.10
2012,07,25,10,19,19.10
2012,07,25,10,20,19.20
2012,07,25,10,21,19.20
2012,07,25,10,22,19.20
2012,07,25,10,23,19.20
2012,07,25,10,24,19.30
2012,07,25,10,25,19.30
2012,07,25,10,26,19.30
2012,07,25,10,27,19.30
2012,07,25,10,28,19.40
2012,07,25,10,29,19.50
2012,07,25,10,30,19.50
2012,07,25,10,31,19.50
2012,07,25,10,32,19.60
2012,07,25,10,33,19.60
2012,07,25,10,34,19.60
2012,07,25,10,35,19.60
2012,07,25,10,36,19.70
2012,07,25,10,37,19.70
2012,07,25,10,38,19.70
2012,07,25,10,39,19.60
2012,07,25,10,40,19.60
2012,07,25,10,41,19.60
2012,07,25,10,42,19.60
2012,07,25,10,43,19.60
2012,07,25,10,44,19.60
2012,07,25,10,45,19.60
2012,07,25,10,46,19.60
2012,07,25,10,47,19.60
2012,07,25,10,48,19.60
2012,07,25,10,49,19.50
2012,07,25,10,50,19.50
2012,07,25,10,51,19.50
2012,07,25,10,52,19.50
2012,07,25,10,53,19.50
2012,07,25,10,54,19.50
2012,07,25,10,55,19.50
2012,07,25,10,56,19.50
2012,07,25,10,57,19.50
2012,07,25,10,58,19.60
2012,07,25,10,59,19.60
2012,07,25,11,00,19.60
2012,07,25,11,01,19.60
2012,07,25,11,02,19.70
2012,07,25,11,03,19.70
2012,07,25,11,04,19.70
2012,07,25,11,05,19.80
2012,07,25,11,06,19.80
2012,07,25,11,07,19.80
2012,07,25,11,08,19.70
2012,07,25,11,09,19.70
2012,07,25,11,10,19.60
2012,07,25,11,11,19.60
2012,07,25,11,12,19.60
2012,07,25,11,13,19.60
2012,07,25,11,14,19.50
2012,07,25,11,15,19.40
2012,07,25,11,16,19.30
2012,07,25,11,17,19.30
2012,07,25,11,18,19.30
2012,07,25,11,19,19.30
2012,07,25,11,20,19.30
2012,07,25,11,21,19.30
2012,07,25,11,22,19.40
2012,07,25,11,23,19.40
2012,07,25,11,24,19.40
2012,07,25,11,25,19.40
2012,07,25,11,26,19.40
2012,07,25,11,27,19.40
2012,07,25,11,28,19.40
2012,07,25,11,29,19.40
2012,07,25,11,30,19.40
2012,07,25,11,31,19.40
2012,07,25,11,32,19.50
2012,07,25,11,33,19.60
2012,07,25,11,34,19.60
2012,07,25,11,35,19.70
2012,07,25,11,36,19.70
2012,07,25,11,37,19.70
2012,07,25,11,38,19.70
2012,07,25,11,39,19.60
2012,07,25,11,40,19.60
2012,07,25,11,41,19.50
2012,07,25,11,42,19.50
2012,07,25,11,43,19.40
2012,07,25,11,44,19.40
2012,07,25,11,45,19.40
2012,07,25,11,46,19.40
2012,07,25,11,47,19.40
2012,07,25,11,48,19.40
2012,07,25,11,49,19.40
2012,07,25,11,50,19.40
2012,07,25,11,51,19.40
2012,07,25,11,52,19.40
2012,07,25,11,53,19.40
2012,07,25,11,54,19.40
2012,07,25,11,55,19.50
2012,07,25,11,56,19.50
2012,07,25,11,57,19.60
2012,07,25,11,58,19.60
2012,07,25,11,59,19.70
2012,07,25,12,00,19.80
2012,07,25,12,01,19.80
2012,07,25,12,02,19.90
2012,07,25,12,03,19.90
2012,07,25,12,04,19.80
2012,07,25,12,05,19.80
2012,07,25,12,06,19.90
2012,07,25,12,07,19.90
2012,07,25,12,08,20.00
2012,07,25,12,09,20.10
2012,07,25,12,10,20.20
2012,07,25,12,11,20.20
2012,07,25,12,12,20.30
2012,07,25,12,13,20.30
2012,07,25,12,14,20.40
2012,07,25,12,15,20.40
2012,07,25,12,16,20.50
2012,07,25,12,17,20.50
2012,07,25,12,18,20.60
2012,07,25,12,19,20.60
2012,07,25,12,20,20.60
2012,07,25,12,21,20.60
2012,07,25,12,22,20.70
2012,07,25,12,23,20.70
2012,07,25,12,24,20.70
2012,07,25,12,25,20.70
2012,07,25,12,26,20.70
2012,07,25,12,27,20.70
2012,07,25,12,28,20.70
2012,07,25,12,29,20.70
2012,07,25,12,30,20.70
2012,07,25,12,31,20.70
2012,07,25,12,32,20.70
2012,07,25,12,33,20.70
2012,07,25,12,34,20.70
2012,07,25,12,35,20.70
2012,07,25,12,36,20.70
2012,07,25,12,37,20.60
2012,07,25,12,38,20.60
2012,07,25,12,39,20.60
2012,07,25,12,40,20.60
2012,07,25,12,41,20.70
2012,07,25,12,42,20.80
2012,07,25,12,43,20.80
2012,07,25,12,44,20.90
2012,07,25,12,45,21.00
2012,07,25,12,46,21.10
2012,07,25,12,47,21.20
2012,07,25,12,48,21.30
2012,07,25,12,49,21.40
2012,07,25,12,50,21.40
2012,07,25,12,51,21.30
2012,07,25,12,52,21.30
2012,07,25,12,53,21.30
2012,07,25,12,54,21.30
2012,07,25,12,55,21.30
2012,07,25,12,56,21.30
2012,07,25,12,57,21.20
2012,07,25,12,58,21.10
2012,07,25,12,59,21.00
2012,07,25,13,00,21.00
2012,07,25,13,01,21.00
2012,07,25,13,02,21.00
2012,07,25,13,03,21.10
2012,07,25,13,04,21.10
2012,07,25,13,05,21.10
2012,07,25,13,06,21.20
2012,07,25,13,07,21.20
2012,07,25,13,08,21.30
2012,07,25,13,09,21.30
2012,07,25,13,10,21.30
2012,07,25,13,11,21.30
2012,07,25,13,12,21.30
2012,07,25,13,13,21.20
2012,07,25,13,14,21.20
2012,07,25,13,15,21.20
2012,07,25,13,16,21.30
2012,07,25,13,17,21.40
2012,07,25,13,18,21.50
2012,07,25,13,19,21.60
2012,07,25,13,20,21.60
2012,07,25,13,21,21.60
2012,07,25,13,22,21.70
2012,07,25,13,23,21.70
2012,07,25,13,24,21.70
2012,07,25,13,25,21.70
2012,07,25,13,26,21.70
2012,07,25,13,27,21.70
2012,07,25,13,28,21.70
2012,07,25,13,29,21.60
2012,07,25,13,30,21.60
2012,07,25,13,31,21.60
2012,07,25,13,32,21.60
2012,07,25,13,33,21.50
2012,07,25,13,34,21.40
2012,07,25,13,35,21.40
2012,07,25,13,36,21.50
2012,07,25,13,37,21.50
2012,07,25,13,38,21.50
2012,07,25,13,39,21.50
2012,07,25,13,40,21.50
2012,07,25,13,41,21.50
2012,07,25,13,42,21.60
2012,07,25,13,43,21.60
2012,07,25,13,44,21.60
2012,07,25,13,45,21.60
2012,07,25,13,46,21.60
2012,07,25,13,47,21.60
2012,07,25,13,48,21.70
2012,07,25,13,49,21.80
2012,07,25,13,50,21.80
2012,07,25,13,51,21.80
2012,07,25,13,52,21.90
2012,07,25,13,53,22.00
2012,07,25,13,54,22.00
2012,07,25,13,55,22.10
2012,07,25,13,56,22.10
2012,07,25,13,57,22.10
2012,07,25,13,58,22.10
2012,07,25,13,59,22.10
2012,07,25,14,00,22.10
2012,07,25,14,01,22.10
2012,07,25,14,02,22.20
2012,07,25,14,03,22.20
2012,07,25,14,04,22.30
2012,07,25,14,05,22.40
2012,07,25,14,06,22.40
2012,07,25,14,07,22.40
2012,07,25,14,08,22.30
2012,07,25,14,09,22.30
2012,07,25,14,10,22.30
2012,07,25,14,11,22.30
2012,07,25,14,12,22.40
2012,07,25,14,13,22.50
2012,07,25,14,14,22.60
2012,07,25,14,15,22.60
2012,07,25,14,16,22.60
2012,07,25,14,17,22.70
2012,07,25,14,18,22.70
2012,07,25,14,19,22.80
2012,07,25,14,20,22.80
2012,07,25,14,21,22.70
2012,07,25,14,22,22.60
2012,07,25,14,23,22.60
2012,07,25,14,24,22.50
2012,07,25,14,25,22.50
2012,07,25,14,26,22.50
2012,07,25,14,27,22.50
2012,07,25,14,28,22.50
2012,07,25,14,29,22.60
2012,07,25,14,30,22.70
2012,07,25,14,31,22.70
2012,07,25,14,32,22.70
2012,07,25,14,33,22.70
2012,07,25,14,34,22.70
2012,07,25,14,35,22.70
2012,07,25,14,36,22.70
2012,07,25,14,37,22.70
2012,07,25,14,38,22.70
2012,07,25,14,39,22.70
2012,07,25,14,40,22.70
2012,07,25,14,41,22.70
2012,07,25,14,42,22.70
2012,07,25,14,43,22.70
2012,07,25,14,44,22.70
2012,07,25,14,45,22.70
2012,07,25,14,46,22.80
2012,07,25,14,47,22.80
2012,07,25,14,48,22.90
2012,07,25,14,49,23.00
2012,07,25,14,50,23.10
2012,07,25,14,51,23.20
2012,07,25,14,52,23.30
2012,07,25,14,53,23.40
2012,07,25,14,54,23.50
2012,07,25,14,55,23.60
2012,07,25,14,56,23.60
2012,07,25,14,57,23.60
2012,07,25,14,58,23.70
2012,07,25,14,59,23.80
2012,07,25,15,00,23.90
2012,07,25,15,01,24.00
2012,07,25,15,02,24.00
2012,07,25,15,03,24.10
2012,07,25,15,04,24.10
2012,07,25,15,05,24.00
2012,07,25,15,06,23.90
2012,07,25,15,07,23.80
2012,07,25,15,08,23.70
2012,07,25,15,09,23.70
2012,07,25,15,10,23.60
2012,07,25,15,11,23.60
2012,07,25,15,12,23.50
2012,07,25,15,13,23.50
2012,07,25,15,14,23.40
2012,07,25,15,15,23.40
2012,07,25,15,16,23.50
2012,07,25,15,17,23.60
2012,07,25,15,18,23.70
2012,07,25,15,19,23.80
2012,07,25,15,20,23.90
2012,07,25,15,21,24.10
2012,07,25,15,22,24.10
2012,07,25,15,23,24.20
2012,07,25,15,24,24.20
2012,07,25,15,25,24.20
2012,07,25,15,26,24.20
2012,07,25,15,27,24.10
2012,07,25,15,28,24.00
2012,07,25,15,29,24.00
2012,07,25,15,30,23.90
2012,07,25,15,31,24.00
2012,07,25,15,32,24.00
2012,07,25,15,33,24.00
2012,07,25,15,34,24.10
2012,07,25,15,35,24.00
2012,07,25,15,36,24.00
2012,07,25,15,37,23.90
2012,07,25,15,38,23.80
2012,07,25,15,39,23.80
2012,07,25,15,40,23.90
2012,07,25,15,41,24.00
2012,07,25,15,42,24.00
2012,07,25,15,43,24.00
2012,07,25,15,44,24.10
2012,07,25,15,45,24.00
2012,07,25,15,46,24.00
2012,07,25,15,47,24.00
2012,07,25,15,48,24.10
2012,07,25,15,49,24.10
2012,07,25,15,50,24.10
2012,07,25,15,51,24.10
2012,07,25,15,52,24.10
2012,07,25,15,53,24.10
2012,07,25,15,54,24.10
2012,07,25,15,55,24.20
2012,07,25,15,56,24.20
2012,07,25,15,57,24.20
2012,07,25,15,58,24.30
2012,07,25,15,59,24.30
2012,07,25,16,00,24.30
2012,07,25,16,01,24.40
2012,07,25,16,02,24.40
2012,07,25,16,03,24.40
2012,07,25,16,04,24.40
2012,07,25,16,05,24.40
2012,07,25,16,06,24.40
2012,07,25,16,07,24.40
2012,07,25,16,08,24.40
2012,07,25,16,09,24.40
2012,07,25,16,10,24.40
2012,07,25,16,11,24.40
2012,07,25,16,12,24.40
2012,07,25,16,13,24.40
2012,07,25,16,14,24.30
2012,07,25,16,15,24.30
2012,07,25,16,16,24.30
2012,07,25,16,17,24.30
2012,07,25,16,18,24.30
2012,07,25,16,19,24.30
2012,07,25,16,20,24.30
2012,07,25,16,21,24.20
2012,07,25,16,22,24.10
2012,07,25,16,23,24.10
2012,07,25,16,24,24.20
2012,07,25,16,25,24.20
2012,07,25,16,26,24.30
2012,07,25,16,27,24.30
2012,07,25,16,28,24.30
2012,07,25,16,29,24.30
2012,07,25,16,30,24.30
2012,07,25,16,31,24.40
2012,07,25,16,32,24.40
2012,07,25,16,33,24.40
2012,07,25,16,34,24.40
2012,07,25,16,35,24.40
2012,07,25,16,36,24.40
2012,07,25,16,37,24.40
2012,07,25,16,38,24.50
2012,07,25,16,39,24.50
2012,07,25,16,40,24.60
2012,07,25,16,41,24.60
2012,07,25,16,42,24.70
2012,07,25,16,43,24.70
2012,07,25,16,44,24.70
2012,07,25,16,45,24.70
2012,07,25,16,46,24.70
2012,07,25,16,47,24.70
2012,07,25,16,48,24.70
2012,07,25,16,49,24.80
2012,07,25,16,50,24.70
2012,07,25,16,51,24.70
2012,07,25,16,52,24.70
2012,07,25,16,53,24.70
2012,07,25,16,54,24.70
2012,07,25,16,55,24.70
2012,07,25,16,56,24.70
2012,07,25,16,57,24.70
2012,07,25,16,58,24.70
2012,07,25,16,59,24.80
2012,07,25,17,00,24.80
2012,07,25,17,01,24.80
2012,07,25,17,02,24.80
2012,07,25,17,03,24.80
2012,07,25,17,04,24.80
2012,07,25,17,05,24.80
2012,07,25,17,06,24.70
2012,07,25,17,07,24.70
2012,07,25,17,08,24.70
2012,07,25,17,09,24.80
2012,07,25,17,10,24.80
2012,07,25,17,11,24.80
2012,07,25,17,12,24.80
2012,07,25,17,13,24.80
2012,07,25,17,14,24.80
2012,07,25,17,15,24.90
2012,07,25,17,16,24.90
2012,07,25,17,17,24.90
2012,07,25,17,18,24.90
2012,07,25,17,19,24.90